User: anonymous
Location: Unspecified
(0.0000°N, 0.0000°E)
Time: 12:09:32
(UTC+02:00)
Language:

ARIANE 5 R/B - Orbit

View from above orbital plane
View from above orbital plane
View from above satellite
View from above satellite

Ground track
Ground track

The orbit data is extracted from the following two-line orbital elements,

1 29646U 06054D   14103.79777301  .00002271  00000-0  87422-3 0  6289
2 29646 002.5357 132.9811 7152540 340.3519 027.9927 02.43086749 62934
Epoch (UTC): 13 April 2014 19:08:47
Eccentricity: 0.7152540
inclination: 2.5357°
perigee height: 275 km
apogee height: 33698 km
right ascension of ascending node: 132.9811°
argument of perigee: 340.3519°
revolutions per day: 2.43086749
mean anomaly at epoch: 27.9927°
orbit number at epoch: 6293

The dashed part of the orbit path shows where the satellite is in the earth's shadow,  

DLR